TimeMDT,TemperatureF,Dew PointF,Humidity,Sea Level PressureIn,VisibilityMPH,Wind Direction,Wind SpeedMPH,Gust SpeedMPH,PrecipitationIn,Events,Conditions,WindDirDegrees,DateUTC
12:53 AM,24.1,21.0,88,30.27,10.0,NW,9.2,-,N/A,,Clear,320,2012-10-25 06:53:00
1:53 AM,24.1,21.0,88,30.29,10.0,NW,13.8,-,N/A,,Clear,310,2012-10-25 07:53:00
2:26 AM,24.8,19.4,80,30.21,10.0,NW,13.8,-,N/A,,Mostly Cloudy,320,2012-10-25 08:26:00
2:53 AM,25.0,21.0,85,30.30,10.0,NNW,10.4,-,N/A,,Overcast,330,2012-10-25 08:53:00
3:33 AM,26.6,21.2,80,30.22,10.0,NNW,11.5,-,N/A,,Overcast,330,2012-10-25 09:33:00
3:53 AM,26.1,21.0,81,30.31,10.0,NNW,13.8,-,N/A,,Overcast,340,2012-10-25 09:53:00
4:53 AM,27.0,21.0,78,30.32,10.0,NNW,12.7,-,N/A,,Overcast,330,2012-10-25 10:53:00
5:53 AM,27.0,21.0,78,30.33,10.0,NNW,10.4,-,N/A,,Overcast,340,2012-10-25 11:53:00
6:53 AM,27.0,19.9,75,30.35,10.0,NNW,10.4,-,N/A,,Overcast,330,2012-10-25 12:53:00
7:53 AM,28.0,19.9,72,30.36,10.0,NNW,11.5,-,N/A,,Overcast,330,2012-10-25 13:53:00
8:53 AM,28.0,19.9,72,30.39,10.0,NW,13.8,-,N/A,,Overcast,320,2012-10-25 14:53:00
9:53 AM,28.0,19.9,72,30.39,10.0,NW,15.0,-,N/A,,Overcast,320,2012-10-25 15:53:00
10:53 AM,28.0,19.9,72,30.40,10.0,NW,13.8,-,N/A,,Overcast,320,2012-10-25 16:53:00
11:53 AM,28.0,19.0,69,30.41,10.0,NW,15.0,-,N/A,,Overcast,320,2012-10-25 17:53:00
12:53 PM,28.9,19.0,67,30.41,10.0,NW,15.0,-,N/A,,Overcast,320,2012-10-25 18:53:00
1:53 PM,28.9,19.0,67,30.41,10.0,NW,16.1,-,N/A,,Overcast,320,2012-10-25 19:53:00
2:53 PM,30.0,19.0,64,30.41,10.0,WNW,15.0,-,N/A,,Overcast,300,2012-10-25 20:53:00
3:53 PM,30.0,18.0,61,30.43,10.0,NW,12.7,-,N/A,,Overcast,320,2012-10-25 21:53:00
4:24 PM,30.2,19.4,64,30.34,10.0,WNW,15.0,-,N/A,,Overcast,300,2012-10-25 22:24:00
4:53 PM,30.0,19.0,64,30.43,10.0,WNW,11.5,-,N/A,,Overcast,300,2012-10-25 22:53:00
5:53 PM,30.0,18.0,61,30.45,10.0,WNW,15.0,-,N/A,,Overcast,300,2012-10-25 23:53:00
6:53 PM,30.0,17.1,59,30.48,10.0,WNW,13.8,-,N/A,,Overcast,300,2012-10-26 00:53:00
7:53 PM,28.9,17.1,61,30.49,10.0,NW,12.7,20.7,N/A,,Overcast,310,2012-10-26 01:53:00
8:53 PM,28.0,16.0,61,30.50,10.0,WNW,13.8,-,N/A,,Overcast,300,2012-10-26 02:53:00
9:53 PM,28.9,15.1,56,30.51,10.0,NW,11.5,21.9,N/A,,Overcast,310,2012-10-26 03:53:00
10:53 PM,28.0,16.0,61,30.51,10.0,NW,9.2,-,N/A,,Overcast,310,2012-10-26 04:53:00
11:53 PM,28.0,16.0,61,30.51,10.0,NW,12.7,-,N/A,,Overcast,310,2012-10-26 05:53:00